Погода в Букачевцах

Украина / Ивано-Франковская область     49°15′16″N   24°29′52″E
темп.,
°C
ветер,
м/с
пор.,
м/с
влажн.,
%
обл.,
%
осадки,
мм/ч
давл.,
гПа
погр.,
м
22 января, пт
пт2223:00+2ююв4784100 0.0 101399
02:00+2ююв448499 0.0 101266
05:00+2ююв448378 0.0 101166
08:00+2ююв448350 0.0 101070
11:00+4ююв369057 0.0 1010100
14:00+6ююв5118666 0.0 1008220
17:00+4ю458652 0.0 100767
20:00+3ю478870 0.0 100794
23 января, сб
сб2323:00+4ю4789100 0.0 1006101
02:00+3юв4790100 0.0 100693
05:00+3ююв488727 0.0 1005115
08:00+3ююв5118729 0.0 1005152
11:00+5ююв389098 0.0 1004167
14:00+6юв489098 0.0 1003177
17:00+4юв348868 0.0 100268
20:00+3юв348852 0.0 100173
24 января, вс
вс2423:00+1вюв2392100 0.0 100049
02:00+1вюв2393100 0.0 99932
05:00+1в2293100 0.0 99735
08:00+2ююв1194100 0.4 99724
11:00+3ю1296100 1.5 99668
14:00+5з3785100 1.5 996217
17:00+3зюз2387100 0.0 99725
20:00+2ююз228988 0.0 100022
25 января, пн
пн2523:00+1ю228932 0.0 100122
02:00+1юв228851 0.0 100122
05:00+1всв1187100 0.0 100022
08:000св2290100 0.0 100125
11:00+2св4787100 0.1 999499
14:000ссв5899100 4.0 996286
17:000с71299100 10.3 994444
20:00−1ссз121897100 19.8 993884
26 января, вт
вт2623:00−2сз132195100 6.0 9941204
02:00−2сз142294100 13.1 9951335
05:00−2зсз142392100 5.1 9981406
08:00−2зсз122092100 6.9 10011319
11:00−2зсз122089100 0.6 10031341
14:00−1зсз121885100 0.8 10051370
17:00−2з91784100 0.1 10071113
20:00−2з81587100 0.3 10091000